CAPE
0 0 0 0 0 0 0 0 0 28 3 0 0 71 156 136 122 56 310 206 4 28 617 1048 1022 690 229 58 0 0 0 0 0 0 41 409 317 36 0 0 0 38 56 32 46 121 268 229 17
0 0 0 0 0 0 0 0 0 53 25 0 0 93 75 12 117 444 363 102 0 55 483 939 1033 758 290 156 0 0 0 0 0 0 64 355 223 5 0 0 0 0 25 11 3 0 0 0 0
0 0 0 0 0 0 0 0 6 146 71 1 0 294 58 0 446 604 216 62 0 81 422 829 847 753 448 208 0 8 5 0 0 0 0 124 60 0 0 0 0 0 0 0 0 0 0 0 0
0 0 0 0 0 0 0 0 0 5 0 0 5 136 65 0 512 429 230 2 0 218 490 868 940 852 576 288 36 54 20 0 0 0 0 2 1 0 0 0 0 0 0 0 0 0 0 0 0
0 0 0 0 0 0 0 0 0 2 0 1 66 91 91 434 421 284 125 0 56 193 498 904 946 939 678 363 83 82 35 0 0 0 0 7 0 0 0 0 0 0 0 0 0 0 0 0 0
0 0 0 0 0 0 0 0 0 1 10 331 328 479 263 608 445 212 81 6 345 81 269 795 920 912 680 378 198 172 55 0 0 0 0 0 0 0 0 0 0 0 0 0 0 0 0 0 0
0 0 0 0 0 0 0 0 0 0 10 449 218 334 328 459 487 133 48 261 263 10 119 526 907 899 737 487 352 268 98 0 0 0 0 0 0 0 0 0 0 0 0 0 0 0 0 0 0
0 0 0 0 0 0 0 0 0 0 113 542 60 33 384 175 451 187 126 244 148 0 9 122 462 615 562 580 444 289 97 0 0 0 0 0 0 0 0 0 0 0 0 0 0 0 0 0 0
0 0 0 0 0 0 0 0 0 0 515 1243 1224 624 378 141 317 261 318 147 71 0 0 0 0 0 9 145 363 202 16 0 0 0 0 0 0 0 0 0 0 0 0 0 0 0 0 0 0
0 0 0 0 0 0 0 0 0 3 426 1144 1010 492 284 421 385 343 469 240 128 1 0 0 0 0 0 0 2 0 0 0 0 0 0 0 0 0 0 0 0 0 0 0 0 0 0 0 0
0 0 0 0 0 0 0 0 0 0 4 641 735 392 133 21 488 703 379 283 129 25 0 0 0 0 0 0 0 0 0 0 0 0 0 0 0 0 0 2 0 0 0 0 0 0 0 0 0
0 0 0 0 0 0 0 0 0 0 0 156 462 415 112 0 320 752 321 288 175 95 34 1 1 5 2 0 0 0 0 0 0 0 0 9 7 273 102 39 3 0 0 3 0 0 0 0 0
0 0 0 0 0 0 0 0 0 0 0 160 445 162 105 0 622 673 237 304 292 166 88 82 63 74 160 40 0 45 53 76 89 131 203 509 999 400 282 153 327 144 73 18 0 0 0 0 0
0 0 0 0 0 0 0 0 0 0 0 0 372 294 118 428 445 683 187 177 278 225 225 210 132 371 616 270 85 211 281 253 313 378 658 893 690 729 683 405 297 145 110 78 80 285 361 254 167
0 0 0 0 0 0 0 0 0 0 0 283 455 275 24 0 604 572 379 231 412 485 707 393 438 1079 1543 1289 803 753 857 917 830 811 903 898 1038 740 567 430 472 777 967 1302 947 775 767 796 493
0 0 0 0 0 0 0 0 0 0 0 70 611 278 152 197 577 473 399 339 416 510 725 733 817 1244 1469 1508 1115 907 774 838 701 1234 1179 1161 855 778 1156 1203 1247 1632 1570 1400 1210 1036 1001 751 398
0 0 0 0 0 0 0 0 0 0 0 0 89 340 241 88 222 183 0 88 436 553 751 1208 1462 1427 1513 1586 1281 993 781 649 489 521 587 532 830 1116 1211 1438 1660 1589 1410 1241 1111 913 478 329 340
0 0 0 0 0 0 0 0 0 0 0 0 0 161 194 131 0 1 0 2 613 956 1274 1705 1782 1654 1498 1448 1318 1321 907 513 305 1105 993 1650 1604 1562 1653 1620 1564 1380 1039 826 390 118 0 0 0
0 0 0 0 0 0 0 0 0 0 0 0 0 58 43 36 0 0 0 42 1087 1296 1424 1722 1667 1666 1549 1551 1261 1048 551 536 1234 1598 1463 1151 970 1042 971 874 694 354 80 6 0 0 0 0 0
0 0 0 0 0 0 0 0 0 0 0 0 135 65 72 8 17 19 13 3 0 749 1304 1708 1805 1686 1516 1466 1140 1004 980 1605 1277 957 848 587 234 89 21 0 0 0 0 0 0 0 0 0 0
0 0 0 0 0 0 0 0 0 0 0 162 403 314 126 102 27 0 0 0 0 0 1385 1820 1814 1749 1472 1392 1530 1647 1537 1164 632 260 66 3 0 0 0 0 0 0 0 0 0 0 0 0 0
0 0 0 0 0 0 0 0 0 0 0 332 408 440 214 4 0 0 0 0 0 0 2 1517 1820 1837 1725 1574 1760 1593 1455 1133 255 1 0 0 0 0 0 0 0 0 0 0 0 0 0 0 0
0 0 0 0 0 0 0 0 0 0 0 35 49 89 12 0 6 0 0 0 0 0 12 569 1490 1764 2142 1924 1715 1537 620 260 0 0 0 0 0 0 0 0 0 0 0 0 0 0 0 0 0
0 0 0 0 0 2 0 8 0 0 0 21 67 42 0 0 0 0 2 0 104 470 492 854 825 1844 2367 1995 1715 816 407 85 0 0 0 0 0 0 0 0 0 0 0 0 0 0 0 0 0
0 6 1 0 6 0 0 0 0 0 0 33 34 6 0 0 0 15 22 53 381 580 1386 1790 1977 2119 2029 1914 1524 597 242 35 0 0 0 0 0 0 0 0 0 0 0 0 0 0 0 0 0
0 0 0 0 0 0 0 18 0 0 0 74 77 50 20 35 16 47 34 163 831 1252 1842 2098 2055 1828 1621 1509 977 138 48 0 0 0 0 0 0 0 0 0 0 0 0 0 0 0 0 0 0
0 0 0 0 1 12 92 2 0 0 0 69 154 96 72 43 6 19 1 379 1319 1684 1938 1729 2034 1632 983 425 96 21 0 0 0 0 0 0 0 0 0 0 0 0 0 0 0 0 0 0 0
0 0 0 0 19 41 35 20 0 10 0 25 208 76 63 26 11 0 685 1006 1322 1486 1831 1909 1431 747 323 43 5 0 0 0 0 0 0 0 0 0 0 0 0 0 0 0 0 0 0 0 0
0 0 0 0 0 21 105 24 1 0 5 26 11 2 66 37 0 4 304 1063 1314 1639 1547 1117 404 229 16 0 0 0 0 0 0 0 0 0 0 0 0 0 0 0 0 0 0 0 0 0 0
0 0 0 0 2 21 122 41 1 41 62 12 86 143 83 119 54 5 85 48 1062 1030 690 259 91 1 0 0 0 0 0 0 0 0 0 0 0 0 0 0 0 0 0 0 0 0 0 0 0
CIN
-0 -0 -0 -0 -0 -0 -0 -0 -0 -96 -77 -0 -15 -229 -144 -91 -107 -208 -444 -512 -544 -777 -477 -338 -308 -356 -465 -581 -0 -0 -0 -0 -0 -0 -484 -249 -270 -424 -0 -0 -0 -396 -337 -357 -306 -222 -135 -140 -222
-0 -0 -0 -0 -0 -0 -0 -0 -0 -94 -139 -0 -14 -119 -136 -207 -302 -502 -464 -638 -0 -751 -518 -384 -325 -355 -448 -504 -0 -0 -0 -0 -0 -0 -450 -279 -333 -126 -0 -0 -0 -0 -360 -363 -307 -0 -24 -0 -0
-0 -0 -0 -0 -0 -0 -0 -0 -66 -97 -86 -97 -9 -191 -125 -0 -299 -381 -555 -708 -0 -714 -522 -394 -362 -369 -417 -489 -0 -481 -499 -0 -0 -0 -0 -405 -438 -0 -0 -0 -0 -0 -0 -0 -0 -0 -0 -0 -0
-0 -0 -0 -0 -0 -0 -0 -0 -0 -52 -0 -2 -82 -74 -162 -0 -270 -494 -550 -46 -0 -638 -513 -401 -351 -352 -401 -474 -660 -593 -628 -0 -0 -0 -0 -123 -326 -0 -0 -0 -0 -0 -0 -0 -0 -0 -0 -0 -0
-0 -0 -0 -0 -0 -0 -0 -0 -0 -25 -0 -11 -56 -112 -176 -198 -324 -487 -510 -0 -649 -609 -512 -394 -359 -325 -369 -453 -578 -559 -598 -0 -0 -0 -0 -557 -0 -0 -0 -0 -0 -0 -0 -0 -0 -0 -0 -0 -0
-0 -0 -0 -0 -0 -0 -0 -0 -0 -3 -17 -43 -96 -75 -193 -228 -298 -416 -490 -594 -500 -635 -541 -383 -349 -329 -356 -434 -495 -506 -576 -0 -0 -0 -0 -0 -0 -0 -0 -0 -0 -0 -0 -0 -0 -0 -0 -0 -0
-0 -0 -0 -0 -0 -0 -0 -0 -0 -0 -3 -55 -73 -106 -215 -240 -280 -345 -437 -497 -507 -702 -631 -447 -313 -322 -348 -404 -441 -467 -539 -0 -0 -0 -0 -0 -0 -0 -0 -0 -0 -0 -0 -0 -0 -0 -0 -0 -0
-0 -0 -0 -0 -0 -0 -0 -0 -0 -0 -16 -229 -136 -123 -92 -132 -196 -267 -405 -493 -571 -0 -710 -610 -462 -389 -401 -387 -410 -454 -531 -0 -0 -0 -0 -0 -0 -0 -0 -0 -0 -0 -0 -0 -0 -0 -0 -0 -0
-0 -0 -0 -0 -0 -0 -0 -0 -0 -16 -109 -114 -135 -189 -113 -187 -83 -138 -322 -417 -540 -0 -0 -0 -0 -0 -454 -542 -437 -497 -629 -0 -0 -0 -0 -0 -0 -0 -0 -0 -0 -0 -0 -0 -0 -0 -0 -0 -0
-0 -0 -0 -0 -0 -0 -0 -0 -0 -15 -164 -216 -208 -308 -267 -75 -40 -101 -243 -355 -476 -204 -0 -0 -0 -0 -0 -0 -89 -0 -0 -0 -0 -0 -0 -0 -0 -0 -0 -0 -0 -0 -0 -0 -0 -0 -0 -0 -0
-0 -0 -0 -0 -0 -0 -0 -0 -0 -0 -12 -174 -144 -276 -295 -221 -55 -89 -165 -302 -437 -538 -0 -0 -0 -0 -0 -0 -0 -0 -0 -0 -0 -0 -0 -0 -0 -0 -0 -291 -26 -10 -0 -0 -0 -0 -0 -0 -0
-0 -0 -0 -0 -0 -0 -0 -0 -0 -0 -0 -100 -177 -255 -322 -0 -214 -104 -224 -283 -364 -427 -493 -61 -61 -312 -62 -0 -0 -0 -0 -0 -0 -0 -0 -48 -229 -262 -314 -283 -177 -0 -0 -310 -0 -0 -0 -0 -0
-0 -0 -0 -0 -0 -0 -0 -0 -0 -0 -0 -121 -178 -238 -223 -0 -167 -107 -185 -278 -314 -368 -428 -471 -511 -475 -418 -485 -0 -460 -463 -467 -425 -370 -319 -221 -120 -178 -172 -192 -162 -196 -220 -239 -0 -0 -0 -0 -0
-0 -0 -0 -0 -0 -0 -0 -0 -0 -0 -0 -0 -118 -84 -122 -175 -195 -90 -110 -139 -218 -296 -395 -413 -417 -385 -303 -349 -412 -362 -353 -348 -303 -245 -173 -116 -135 -109 -116 -136 -151 -147 -127 -109 -126 -43 -23 -23 -32
-0 -0 -0 -0 -0 -0 -0 -0 -0 -0 -0 -42 -54 -167 -183 -0 -140 -130 -97 -95 -206 -293 -309 -350 -295 -196 -156 -134 -190 -193 -184 -182 -178 -143 -84 -75 -58 -89 -126 -139 -114 -59 -20 -10 -15 -13 -30 -34 -51
-0 -0 -0 -0 -0 -0 -0 -0 -0 -0 -0 -31 -33 -78 -63 -372 -116 -144 -134 -101 -155 -222 -269 -273 -204 -140 -113 -101 -160 -104 -133 -98 -120 -78 -54 -41 -69 -86 -50 -38 -21 -10 -12 -26 -33 -42 -37 -19 -61
-0 -0 -0 -0 -0 -0 -0 -0 -0 -0 -0 -0 -117 -128 -144 -46 -102 -110 -0 -356 -125 -137 -196 -199 -134 -95 -98 -158 -129 -104 -118 -134 -145 -135 -110 -96 -78 -45 -25 -13 -11 -17 -30 -46 -51 -62 -84 -80 -57
-0 -0 -0 -0 -0 -0 -0 -0 -0 -0 -0 -0 -0 -166 -155 -177 -11 -43 -0 -88 -68 -119 -123 -122 -122 -137 -145 -144 -96 -112 -133 -127 -171 -75 -72 -42 -49 -42 -27 -22 -19 -23 -53 -68 -114 -158 -0 -0 -0
-0 -0 -0 -0 -0 -0 -0 -0 -0 -0 -0 -0 -0 -186 -260 -379 -0 -0 -0 -168 -27 -71 -69 -45 -69 -106 -151 -115 -135 -147 -193 -185 -65 -53 -74 -94 -94 -91 -76 -59 -73 -149 -207 -208 -0 -0 -0 -0 -0
-0 -0 -0 -0 -0 -0 -0 -0 -0 -0 -0 -0 -163 -279 -279 -322 -301 -152 -171 -2 -0 -39 -38 -55 -81 -162 -111 -77 -89 -104 -103 -26 -88 -194 -188 -190 -272 -313 -236 -0 -0 -0 -0 -0 -0 -0 -0 -0 -0
-0 -0 -0 -0 -0 -0 -0 -0 -0 -0 -0 -284 -269 -323 -321 -292 -263 -37 -0 -0 -0 -0 -11 -65 -93 -87 -114 -79 -25 -20 -59 -138 -223 -301 -361 -191 -0 -0 -0 -0 -0 -0 -0 -0 -0 -0 -0 -0 -0
-0 -0 -0 -0 -0 -0 -0 -0 -0 -0 -0 -159 -265 -249 -259 -285 -0 -0 -0 -0 -0 -0 -0 -8 -50 -78 -35 -30 -27 -62 -93 -145 -319 -87 -0 -0 -0 -0 -0 -0 -0 -0 -0 -0 -0 -0 -0 -0 -0
-0 -0 -0 -0 -0 -0 -0 -0 -0 -0 -0 -46 -257 -235 -296 -0 -271 -0 -0 -0 -0 -0 -55 -1 -21 -36 -9 -9 -13 -44 -204 -341 -33 -0 -0 -0 -0 -0 -0 -0 -0 -0 -0 -0 -0 -0 -0 -0 -0
-0 -0 -0 -0 -0 -47 -0 -8 -0 -0 -0 -53 -244 -226 -0 -0 -0 -45 -77 -0 -118 -28 -3 -5 -5 -8 -9 -17 -40 -183 -269 -385 -0 -0 -0 -0 -0 -0 -0 -0 -0 -0 -0 -0 -0 -0 -0 -0 -0
-0 -20 -8 -0 -27 -0 -0 -12 -0 -0 -0 -59 -135 -280 -38 -0 -0 -324 -266 -202 -21 -8 -20 -8 -9 -12 -12 -35 -85 -242 -313 -352 -0 -0 -0 -0 -0 -0 -0 -0 -0 -0 -0 -0 -0 -0 -0 -0 -0
-0 -0 -0 -0 -0 -0 -0 -25 -0 -0 -0 -63 -118 -220 -242 -354 -382 -302 -282 -275 -41 -33 -28 -27 -47 -51 -49 -65 -136 -318 -343 -0 -0 -0 -0 -0 -0 -0 -0 -0 -0 -0 -0 -0 -0 -0 -0 -0 -0
-0 -0 -0 -9 -9 -104 -70 -47 -0 -0 -0 -45 -127 -209 -230 -278 -344 -262 -10 -156 -45 -53 -66 -64 -37 -43 -113 -193 -293 -373 -0 -0 -0 -0 -0 -0 -0 -0 -0 -0 -0 -0 -0 -0 -0 -0 -0 -0 -0
-0 -0 -0 -0 -33 -40 -28 -128 -0 -148 -28 -24 -147 -204 -210 -241 -260 -0 -19 -29 -44 -59 -63 -46 -34 -110 -207 -346 -398 -0 -0 -0 -0 -0 -0 -0 -0 -0 -0 -0 -0 -0 -0 -0 -0 -0 -0 -0 -0
-0 -0 -0 -0 -0 -63 -12 -163 -82 -24 -62 -36 -17 -22 -138 -124 -0 -121 -56 -49 -53 -55 -63 -114 -185 -232 -141 -0 -0 -0 -0 -0 -0 -0 -0 -0 -0 -0 -0 -0 -0 -0 -0 -0 -0 -0 -0 -0 -0
-0 -0 -0 -0 -18 -56 -26 -98 -6 -108 -59 -57 -45 -85 -95 -79 -56 -85 -162 -155 -70 -49 -93 -198 -301 -6 -0 -0 -0 -0 -0 -0 -0 -0 -0 -0 -0 -0 -0 -0 -0 -0 -0 -0 -0 -0 -0 -0 -0
Wind_Speed
31 29 28 25 26 29 34 31 28 16 18 15 20 16 10 9 11 6 11 16 21 23 20 21 22 21 22 22 21 21 20 20 20 21 22 23 22 24 25 25 26 25 25 25 24 24 23 23 22
29 27 24 24 32 38 35 34 32 15 8 9 23 17 14 10 4 7 7 16 19 18 17 19 20 21 21 21 20 20 19 19 20 21 22 23 25 25 24 24 24 23 23 23 23 22 22 21 20
27 24 26 28 36 44 35 34 15 9 2 10 11 12 20 7 8 3 14 17 18 14 15 17 19 20 20 19 19 18 19 19 20 21 22 23 23 23 23 22 22 22 22 22 21 21 20 19 19
22 23 28 37 43 41 43 38 21 13 17 16 18 10 9 2 7 7 15 16 16 13 13 15 16 17 18 18 18 18 18 18 18 19 20 20 20 20 21 20 20 20 20 20 20 19 19 18 17
23 26 37 42 46 44 41 41 37 22 21 13 7 3 2 4 12 14 12 14 13 12 12 12 15 15 16 16 17 17 16 16 16 17 18 18 17 19 19 19 19 19 19 18 18 18 17 17 16
27 28 37 48 44 43 45 42 38 20 23 8 6 8 3 10 11 9 11 13 11 12 9 10 12 13 14 15 15 14 13 14 16 17 16 16 17 17 17 18 18 18 17 16 16 16 16 16 16
31 34 42 41 41 46 46 41 39 32 7 13 10 15 10 5 7 9 11 11 11 13 11 8 7 9 11 13 14 12 11 12 14 14 15 16 16 16 16 16 16 16 15 14 14 14 14 16 15
29 33 44 45 47 50 44 41 38 33 26 3 2 12 13 14 7 7 9 14 12 11 11 11 7 6 5 5 8 9 10 12 13 14 15 15 15 14 13 13 14 13 13 12 12 11 10 10 11
33 39 50 51 47 45 40 39 36 32 11 14 19 1 1 13 10 9 10 9 9 10 10 11 8 6 5 4 4 7 9 10 12 13 14 14 12 12 12 12 12 11 10 9 8 8 7 6 4
33 40 54 37 43 44 45 43 38 23 11 10 5 3 10 13 16 17 12 10 8 10 10 9 8 7 6 3 3 3 5 7 10 12 11 11 12 11 11 11 10 10 9 8 6 4 4 5 8
39 51 40 45 44 43 47 46 36 34 28 12 12 10 14 16 16 15 13 14 10 10 10 10 9 8 6 4 4 2 1 4 7 10 11 12 11 9 8 9 9 10 9 9 9 7 6 7 10
43 48 47 43 41 46 47 47 42 35 34 16 10 13 13 16 19 18 19 15 15 12 11 11 9 8 6 5 4 2 1 3 4 8 10 9 10 10 8 10 10 10 9 10 10 10 9 11 12
47 44 42 41 47 48 45 50 47 43 34 18 15 14 15 17 20 18 18 18 17 15 14 14 12 10 8 5 3 3 2 2 6 7 9 7 8 10 11 14 16 13 10 12 13 12 16 19 19
30 43 42 41 44 46 46 48 42 46 35 33 17 19 17 17 19 20 19 19 18 16 17 16 13 11 8 7 4 3 1 1 3 5 6 7 8 10 12 15 16 17 16 17 17 20 22 24 25
41 40 38 44 42 45 42 49 48 41 34 29 20 20 21 20 15 14 22 21 19 18 16 16 14 11 6 11 10 8 1 1 3 2 5 7 8 12 14 15 17 18 18 19 20 22 26 28 31
37 39 42 40 39 42 37 51 51 38 31 28 23 16 31 35 21 18 15 22 23 21 19 17 15 13 8 8 5 8 7 5 6 6 6 8 10 11 14 16 18 22 24 26 27 30 30 29 25
37 41 43 39 33 34 34 48 51 41 37 35 32 21 22 14 22 22 28 37 26 21 18 17 16 14 11 11 10 10 7 7 6 6 6 9 10 10 12 15 20 23 25 27 29 31 32 33 32
40 40 38 40 34 32 35 43 47 43 36 37 33 29 28 26 26 34 34 47 45 20 18 19 19 15 13 12 11 9 6 6 7 9 7 9 13 15 15 19 22 24 26 28 29 30 33 33 36
35 38 38 36 38 31 38 44 43 40 38 44 32 29 25 25 17 22 33 39 30 26 22 16 20 19 15 11 8 3 2 2 5 7 8 10 14 17 17 20 22 23 26 27 30 31 34 35 40
39 39 38 39 34 32 34 45 44 39 39 37 24 27 27 25 26 21 17 43 24 27 27 20 20 17 12 11 9 9 3 3 6 7 10 12 15 17 19 20 22 22 25 28 31 33 35 32 38
40 40 39 35 34 33 32 43 42 39 39 22 20 19 21 22 23 21 22 23 28 49 35 29 24 17 13 9 4 1 3 3 5 8 10 13 16 17 18 20 21 23 26 28 31 34 36 37 36
38 38 37 35 34 36 31 45 46 46 43 23 24 24 23 19 17 15 21 18 27 47 40 36 24 16 10 11 4 6 3 2 4 7 11 14 15 16 18 20 22 24 26 28 30 33 36 35 37
36 34 34 35 33 34 34 40 44 48 51 37 29 28 26 25 22 21 17 14 12 31 37 43 24 14 9 9 5 2 2 5 7 9 10 12 13 16 18 21 23 25 26 27 30 33 36 34 33
29 31 31 33 33 38 38 36 50 43 55 40 29 26 26 24 21 17 16 22 21 7 25 20 7 14 5 5 3 3 3 5 5 7 8 10 14 16 19 21 22 24 26 27 29 32 36 34 36
30 23 30 34 36 40 35 32 45 44 49 40 35 28 20 18 20 11 10 5 18 6 9 5 6 9 6 1 1 2 3 3 3 5 6 10 13 16 18 20 22 24 26 28 30 33 36 34 36
26 21 28 35 37 41 29 40 43 44 44 32 36 29 17 17 17 16 12 11 9 7 12 6 4 9 7 2 2 4 6 4 4 5 7 9 12 15 18 20 22 24 28 30 33 35 36 35 36
21 23 21 24 24 28 30 37 43 44 47 33 32 28 22 18 17 14 13 12 14 8 7 3 4 3 3 1 2 4 5 5 8 10 11 12 14 18 21 22 24 28 31 33 36 37 37 37 38
31 35 34 39 18 24 28 35 36 36 35 27 28 30 25 18 16 11 12 12 7 8 5 4 4 4 1 3 4 5 5 6 8 11 12 15 17 20 22 24 28 31 33 35 37 39 39 38 39
28 28 25 24 26 21 20 29 33 40 25 12 16 23 25 17 18 11 9 9 9 7 5 8 7 3 1 3 4 4 5 8 11 12 15 17 19 21 24 28 31 33 35 38 40 40 39 38 39
29 27 22 24 23 25 18 27 22 28 22 17 11 7 16 14 15 19 9 12 9 11 6 8 6 4 5 5 4 5 8 10 12 14 16 18 21 25 28 30 32 35 37 40 39 38 38 40 42
Wind_Direction
266 274 276 278 261 253 247 245 259 285 288 275 281 278 297 285 270 297 98 110 113 113 110 109 109 108 106 102 98 93 87 83 82 83 82 78 71 74 72 75 77 72 72 69 70 72 68 67 67
265 271 277 268 251 240 246 246 251 288 296 126 240 276 290 287 324 91 113 112 118 115 111 109 111 110 108 105 101 96 89 84 85 88 86 82 84 83 74 74 73 70 70 68 70 69 68 66 67
263 266 263 257 249 235 245 240 287 293 20 282 281 308 276 277 81 267 114 112 116 116 112 110 112 112 111 107 103 97 92 89 90 91 91 89 84 78 77 72 69 70 72 69 69 67 66 64 65
262 261 260 250 243 242 233 237 276 285 295 306 284 308 268 61 287 103 114 116 117 116 113 111 111 112 111 109 104 100 95 91 90 92 90 85 80 75 72 67 70 72 71 68 66 64 62 60 63
259 257 249 248 244 242 236 239 246 273 283 320 317 76 233 25 83 110 113 123 122 119 116 113 112 111 111 109 106 102 96 92 91 93 91 82 75 75 71 69 69 69 69 67 61 57 53 50 51
253 252 248 243 246 246 238 238 246 273 258 309 240 238 51 90 96 118 117 127 124 123 122 118 114 112 111 110 108 104 98 93 94 95 88 81 83 76 71 70 69 68 67 65 56 50 45 39 40
248 249 248 249 248 243 235 238 248 265 234 255 259 300 280 97 122 130 129 129 127 124 120 123 132 117 112 110 109 105 99 92 93 92 90 88 85 78 73 68 66 66 72 71 63 55 45 29 31
250 253 248 247 243 241 236 242 244 261 273 115 149 277 272 262 163 160 149 130 126 129 124 120 133 134 130 122 111 106 99 96 96 97 94 92 85 80 70 70 71 71 70 63 62 64 66 53 35
248 248 243 241 241 241 240 245 247 257 283 270 277 194 173 252 209 185 168 153 137 139 134 128 132 136 134 133 120 107 102 99 98 98 98 92 80 80 77 87 83 83 84 73 75 70 71 65 48
241 244 242 251 248 245 241 242 248 276 295 260 241 155 95 229 216 223 193 178 159 152 150 148 148 144 145 183 135 110 97 92 94 96 88 82 96 85 76 82 88 85 80 84 90 89 70 51 37
243 244 250 249 250 251 244 245 256 267 269 237 221 192 173 159 176 201 209 212 183 175 171 167 165 162 159 176 159 185 102 83 88 97 102 102 83 80 81 74 72 56 60 55 53 52 37 24 15
243 246 248 250 252 251 248 247 255 263 262 255 227 201 196 207 223 206 195 192 200 182 183 179 188 192 196 172 183 184 165 91 87 100 108 82 81 77 83 25 27 35 34 26 21 18 17 11 8
243 247 252 255 251 252 255 249 252 258 266 253 246 231 225 202 190 212 188 191 179 195 186 179 173 186 205 196 236 219 246 87 93 96 102 73 42 17 7 359 1 18 24 13 9 1 357 357 357
253 247 253 254 252 251 253 250 255 250 266 254 223 243 220 215 236 230 206 203 189 193 193 183 181 186 199 214 215 213 223 352 74 84 87 73 38 11 9 354 2 5 8 5 0 357 355 352 350
248 251 253 249 252 250 252 251 248 251 262 253 256 249 231 232 219 229 231 209 199 184 195 185 198 200 201 245 251 265 192 62 126 58 72 56 25 353 355 355 355 1 3 1 356 353 352 351 351
246 247 247 249 250 249 250 246 242 254 254 247 235 240 253 225 212 230 243 222 197 190 181 189 211 207 204 235 247 257 270 308 323 18 65 23 6 1 355 356 352 354 352 351 350 347 347 351 349
242 240 244 249 250 248 248 246 242 252 253 250 237 233 229 241 246 229 237 239 219 213 208 204 208 206 214 231 250 258 266 288 312 334 356 356 8 12 7 4 355 352 351 349 347 345 346 343 344
234 239 246 247 249 245 248 248 243 250 253 248 245 244 252 254 256 255 247 249 236 223 212 217 206 196 196 218 236 251 266 290 314 338 350 4 3 3 4 357 355 355 352 350 351 349 348 348 343
244 244 246 251 248 248 247 250 245 248 251 246 246 246 251 256 261 279 254 248 254 224 228 209 216 219 213 210 202 195 187 315 346 359 12 5 358 5 3 358 355 358 356 354 354 351 348 346 343
242 243 247 248 252 253 249 249 248 248 248 247 242 244 249 256 260 271 281 238 257 251 228 219 216 199 185 212 231 247 126 9 6 7 10 2 9 7 2 360 2 4 1 356 355 352 348 349 347
241 242 245 249 252 251 251 251 248 248 246 240 243 244 250 246 260 269 263 271 249 272 230 219 202 208 210 193 176 220 84 48 39 6 357 6 7 12 14 9 8 6 1 357 354 352 350 344 347
240 241 246 252 248 250 245 250 247 243 243 237 239 242 245 248 258 270 271 272 266 256 258 224 198 179 173 143 140 127 125 78 32 8 6 8 15 17 13 10 6 3 2 358 356 355 352 351 346
243 245 248 253 255 256 250 252 248 242 241 246 244 248 256 261 261 267 267 278 273 271 263 219 204 180 150 134 120 110 56 66 46 22 19 23 23 15 11 6 1 1 1 1 358 355 352 352 351
250 248 255 257 256 254 252 250 244 244 240 246 245 245 254 261 267 269 263 276 275 286 255 221 158 124 135 116 132 109 79 50 35 27 33 24 11 7 3 3 4 2 0 358 356 354 351 351 346
242 249 247 248 245 248 254 259 249 246 247 241 239 240 247 260 261 258 252 285 269 250 270 287 97 114 121 231 162 109 87 57 48 49 25 11 4 2 3 2 360 358 357 355 353 350 348 347 345
244 240 241 243 243 247 256 249 247 239 241 240 240 238 243 250 249 250 247 221 221 142 139 131 106 110 103 71 314 95 66 54 25 5 10 16 8 3 1 358 357 355 353 350 347 345 344 344 343
236 239 232 253 248 253 252 250 247 243 237 249 236 234 235 231 241 244 258 241 222 215 182 141 139 134 119 335 68 44 54 36 39 30 31 14 8 358 355 354 352 349 346 346 343 343 343 341 340
224 209 211 207 237 242 249 245 240 233 240 249 234 235 235 230 233 238 228 224 204 162 208 228 190 155 270 32 22 49 49 34 32 23 13 4 357 352 351 350 347 344 344 344 342 342 341 340 338
219 226 235 242 249 242 253 235 236 235 244 201 213 239 229 236 237 231 218 204 195 158 140 129 134 144 73 47 51 48 17 14 14 8 359 355 352 349 346 344 341 341 342 341 340 339 339 340 337
232 242 243 237 238 238 251 240 247 239 225 229 229 224 220 227 259 266 213 191 225 216 147 132 135 107 96 80 43 30 17 5 359 353 349 348 345 342 340 338 339 339 340 340 342 342 342 338 335